Location: DARK SKY Beskydy - Park tmavé oblohy, www.darkskybeskydy.cz
(49.4926°N, 18.5016°E)
Time: 21:00:27
(UTC+02:00)

M-CUBED/EXP-1 PRIME - Visible Passes

Search period start: 22 April 2024 00:00
Search period end: 02 May 2024 00:00
Orbit: 344 x 419 km, 101.7° (Epoch: 22 April)

Date Brightness Start Highest point End Pass type
(mag) Time Alt. Az. Time Alt. Az. Time Alt. Az.
22 Apr ? 03:08:52 64° E 03:08:58 65° ENE 03:11:58 10° NNW visible
23 Apr ? 02:12:10 11° E 02:13:38 14° ENE 02:15:15 10° NNE visible
23 Apr ? 03:44:22 43° WSW 03:44:22 43° WSW 03:47:12 10° NNW visible
24 Apr ? 02:47:15 23° ESE 02:48:20 29° ENE 02:50:59 10° N visible
24 Apr ? 04:19:26 17° W 04:19:26 17° W 04:21:24 10° WNW visible
25 Apr ? 03:21:54 43° SSE 03:22:44 78° ENE 03:25:41 10° NNW visible
26 Apr ? 02:24:24 10° E 02:26:10 15° ENE 02:27:56 10° NNE visible
26 Apr ? 03:56:04 31° SW 03:56:49 37° WSW 03:59:34 10° NW visible
27 Apr ? 02:57:42 16° ESE 02:59:38 31° ENE 03:02:16 10° N visible
27 Apr ? 04:29:48 14° WSW 04:30:34 15° W 04:32:25 10° WNW visible
28 Apr ? 03:31:01 22° SSE 03:32:46 83° ENE 03:35:40 10° NNW visible
29 Apr ? 02:33:17 10° E 02:35:01 15° ENE 02:36:44 10° NNE visible
29 Apr ? 04:03:52 18° SSW 04:05:35 35° WSW 04:08:17 10° NW visible
30 Apr ? 03:04:35 10° SE 03:07:12 30° ENE 03:09:48 10° N visible
30 Apr ? 04:36:16 10° SW 04:38:04 15° W 04:39:52 10° WNW visible
01 May ? 03:36:14 10° SSE 03:39:05 79° ENE 03:41:57 10° NNW visible
